BV1EV-2 Weather Reports


Display with metric or nautical units.
time (UTC)temp
F
wind
direction
speed
MPH
gust
MPH
rain 1hr
in
rain 24hr
in
rain mn
in
humidity
%
barometer
mb
20260509073747 83 0.0 0.0 0.00 0.00 0.00 49 1014.0
20260509071748 83 0.0 0.0 0.00 0.00 0.00 44 1014.2
20260509065748 83 0.0 0.0 0.00 0.00 0.00 41 1014.1
20260509063748 83 0.0 0.0 0.00 0.00 0.00 44 1014.0
20260509061748 85 0.0 0.0 0.00 0.00 0.00 44 1014.1
20260509055748 85 0.0 0.0 0.00 0.00 0.00 50 1014.6
20260509053748 85 0.0 0.0 0.00 0.00 0.00 50 1014.5
20260509051747 85 0.0 0.0 0.00 0.00 0.00 50 1014.8
20260509045748 85 0.0 0.0 0.00 0.00 0.00 51 1015.1
20260509043747 81 0.0 0.0 0.00 0.00 0.00 58 1015.4
20260509041748 81 0.0 0.0 0.00 0.00 0.00 57 1015.4
20260509035748 81 0.0 0.0 0.00 0.00 0.00 57 1015.7
20260509033748 80 0.0 0.0 0.00 0.00 0.00 57 1016.0
20260509031748 83 0.0 0.0 0.00 0.00 0.00 47 1016.3
20260509025748 83 0.0 0.0 0.00 0.00 0.00 48 1016.6
20260509023747 83 0.0 0.0 0.00 0.00 0.00 52 1016.9
20260509021747 83 0.0 0.0 0.00 0.00 0.00 52 1016.8
20260509015747 82 0.0 0.0 0.00 0.00 0.00 53 1017.2
20260509013748 83 0.0 0.0 0.00 0.00 0.00 51 1017.0
20260509011748 83 0.0 0.0 0.00 0.00 0.00 48 1017.1
20260509005748 82 0.0 0.0 0.00 0.00 0.00 47 1016.8
20260509003747 82 0.0 0.0 0.00 0.00 0.00 46 1016.6
20260509001748 82 0.0 0.0 0.00 0.00 0.00 48 1016.6
20260508235748 82 0.0 0.0 0.00 0.00 0.00 48 1016.3
20260508233748 83 0.0 0.0 0.00 0.00 0.00 49 1016.2
20260508231748 83 0.0 0.0 0.00 0.00 0.00 49 1016.1
20260508225748 83 0.0 0.0 0.00 0.00 0.00 50 1015.9
20260508223748 83 0.0 0.0 0.00 0.00 0.00 50 1015.7
20260508221748 83 0.0 0.0 0.00 0.00 0.00 50 1015.5
20260508215748 83 0.0 0.0 0.00 0.00 0.00 47 1015.4
20260508213747 82 0.0 0.0 0.00 0.00 0.00 44 1015.3
20260508211748 82 0.0 0.0 0.00 0.00 0.00 46 1014.9
20260508205747 83 0.0 0.0 0.00 0.00 0.00 46 1014.8
20260508203748 83 0.0 0.0 0.00 0.00 0.00 47 1014.5
20260508201747 82 0.0 0.0 0.00 0.00 0.00 48 1014.2
20260508195748 83 0.0 0.0 0.00 0.00 0.00 48 1014.3
20260508193747 83 0.0 0.0 0.00 0.00 0.00 48 1014.0
20260508191748 83 0.0 0.0 0.00 0.00 0.00 50 1013.8
20260508185748 83 0.0 0.0 0.00 0.00 0.00 49 1014.1
20260508183747 82 0.0 0.0 0.00 0.00 0.00 44 1014.3
20260508181748 84 0.0 0.0 0.00 0.00 0.00 45 1014.3
20260508175748 83 0.0 0.0 0.00 0.00 0.00 43 1014.3
20260508173747 82 0.0 0.0 0.00 0.00 0.00 43 1014.6
20260508171747 82 0.0 0.0 0.00 0.00 0.00 51 1014.7
20260508165747 83 0.0 0.0 0.00 0.00 0.00 48 1015.1
20260508163748 84 0.0 0.0 0.00 0.00 0.00 47 1015.3
20260508161748 85 0.0 0.0 0.00 0.00 0.00 50 1015.5
20260508155748 85 0.0 0.0 0.00 0.00 0.00 51 1015.6
20260508153747 85 0.0 0.0 0.00 0.00 0.00 52 1015.6
20260508151747 85 0.0 0.0 0.00 0.00 0.00 49 1015.9
20260508145747 84 0.0 0.0 0.00 0.00 0.00 46 1015.9
20260508143748 84 0.0 0.0 0.00 0.00 0.00 51 1016.1
20260508141748 83 0.0 0.0 0.00 0.00 0.00 47 1016.1
20260508135747 85 0.0 0.0 0.00 0.00 0.00 55 1016.2
20260508133748 84 0.0 0.0 0.00 0.00 0.00 54 1016.1
20260508131748 83 0.0 0.0 0.00 0.00 0.00 46 1016.1
20260508125748 84 0.0 0.0 0.00 0.00 0.00 48 1015.9
20260508123747 84 0.0 0.0 0.00 0.00 0.00 47 1015.8
20260508121747 85 0.0 0.0 0.00 0.00 0.00 48 1015.6
20260508115747 85 0.0 0.0 0.00 0.00 0.00 52 1015.3
20260508113748 83 0.0 0.0 0.00 0.00 0.00 49 1015.0
20260508111748 84 0.0 0.0 0.00 0.00 0.00 48 1014.9
20260508105747 84 0.0 0.0 0.00 0.00 0.00 47 1014.6
20260508103747 84 0.0 0.0 0.00 0.00 0.00 46 1014.4
20260508101747 85 0.0 0.0 0.00 0.00 0.00 50 1014.3
20260508095747 84 0.0 0.0 0.00 0.00 0.00 53 1013.7
20260508093747 85 0.0 0.0 0.00 0.00 0.00 52 1013.6
20260508091748 85 0.0 0.0 0.00 0.00 0.00 50 1013.7
20260508085748 85 0.0 0.0 0.00 0.00 0.00 48 1013.5
20260508083748 85 0.0 0.0 0.00 0.00 0.00 46 1013.1
20260508081747 85 0.0 0.0 0.00 0.00 0.00 49 1012.8
20260508075747 85 0.0 0.0 0.00 0.00 0.00 43 1012.7